DW0742 Weather Reports


Display with metric or nautical units.
time (UTC)temp
F
wind
direction
speed
MPH
gust
MPH
rain 1hr
in
rain 24hr
in
rain mn
in
humidity
%
barometer
mb
20260505023035 71 241 3.0 14.0 0.00 0.00 0.00 28 1004.6
20260505021538 72 302 2.0 15.0 0.00 0.00 0.00 26 1004.7
20260505020042 72 0 2.0 13.0 0.00 0.00 0.00 24 1004.7
20260505014542 73 295 4.0 15.0 0.00 0.00 0.00 23 1004.5
20260505013037 75 212 2.0 14.0 0.00 0.00 0.00 20 1004.6
20260505011537 76 0 1.0 7.0 0.00 0.00 0.00 20 1004.7
20260505010055 77 303 1.0 10.0 0.00 0.00 0.00 19 1004.8
20260505004540 77 0 2.0 10.0 0.00 0.00 0.00 19 1004.8
20260505003041 78 0 1.0 13.0 0.00 0.00 0.00 21 1004.7
20260505001540 77 200 2.0 12.0 0.00 0.00 0.00 20 1004.9
20260505000047 77 0 0.0 10.0 0.00 0.00 0.00 20 1004.9
20260504234536 77 98 0.0 6.0 0.00 0.00 0.00 22 1004.5
20260504233035 78 0 0.0 5.0 0.00 0.00 0.00 21 1004.5
20260504231542 78 0 0.0 7.0 0.00 0.00 0.00 19 1004.5
20260504230041 77 0 0.0 5.0 0.00 0.00 0.00 22 1004.6
20260504224537 77 91 0.0 4.0 0.00 0.00 0.00 21 1004.8
20260504223037 77 0 0.0 3.0 0.00 0.00 0.00 22 1005.0
20260504221543 77 104 0.0 5.0 0.00 0.00 0.00 21 1005.1
20260504220049 78 119 0.0 5.0 0.00 0.00 0.00 22 1005.2
20260504214542 77 0 0.0 5.0 0.00 0.00 0.00 22 1005.5
20260504213059 78 0 0.0 6.0 0.00 0.00 0.00 20 1005.7
20260504211541 77 0 0.0 2.0 0.00 0.00 0.00 20 1005.9
20260504210035 77 0 0.0 3.0 0.00 0.00 0.00 20 1006.0
20260504204545 77 0 0.0 2.0 0.00 0.00 0.00 24 1006.1
20260504203042 74 0 0.0 5.0 0.00 0.00 0.00 25 1006.6
20260504201541 76 0 0.0 3.0 0.00 0.00 0.00 24 1006.4
20260504200036 74 0 0.0 2.0 0.00 0.00 0.00 24 1006.7
20260504194541 74 0 1.0 5.0 0.00 0.00 0.00 25 1006.8
20260504193055 74 70 0.0 4.0 0.00 0.00 0.00 26 1006.9
20260504191539 72 0 0.0 5.0 0.00 0.00 0.00 27 1007.1
20260504190041 72 0 0.0 4.0 0.00 0.00 0.00 27 1007.3
20260504184536 72 0 0.0 5.0 0.00 0.00 0.00 28 1007.3
20260504183047 71 34 0.0 0.0 0.00 0.00 0.00 28 1007.5
20260504181538 71 0 0.0 0.0 0.00 0.00 0.00 29 1007.4
20260504180110 70 0 0.0 0.0 0.00 0.00 0.00 30 1007.2
20260504174541 69 0 0.0 0.0 0.00 0.00 0.00 32 1007.3
20260504173035 69 0 0.0 0.0 0.00 0.00 0.00 32 1007.3
20260504171536 68 0 0.0 0.0 0.00 0.00 0.00 33 1007.2
20260504081545 67 0 4.0 9.0 0.00 0.00 0.00 27 1005.6
20260504044538 72 0 0.0 4.0 0.00 0.00 0.00 28 1003.2
20260504043049 72 0 0.0 7.0 0.00 0.00 0.00 26 1002.9
20260504041541 73 198 4.0 13.0 0.00 0.00 0.00 26 1002.6
20260504040049 73 209 2.0 18.0 0.00 0.00 0.00 26 1002.7
20260504034549 73 257 5.0 18.0 0.00 0.00 0.00 26 1002.5
20260504033040 75 252 0.0 17.0 0.00 0.00 0.00 24 1002.6
20260504031539 75 0 4.0 12.0 0.00 0.00 0.00 24 1001.8
20260504030042 76 0 0.0 8.0 0.00 0.00 0.00 25 1001.6
20260504024535 77 0 1.0 14.0 0.00 0.00 0.00 23 1001.6